When you browse on this site, cookies collect data to enhance your experience and personalize the content and advertising you see.
Visit our Privacy Policy to learn more. By continuing to use the site, you agree to this use of cookies and data.

Tiempo cada hora Francistown

Hoy, 18 Septiembre, Viernes

Tiempo Temperatura Precipitaciones Viento Presión Humedad
00:00 +26°C° 0.1 mm 5 mps 679 mmHg 49%
01:00 +24°C° 0.1 mm 6 mps 679 mmHg 53%
02:00 +23°C° 0 mm 6 mps 679 mmHg 58%
03:00 +22°C° 0 mm 5 mps 679 mmHg 63%
04:00 +21°C° 0 mm 5 mps 679 mmHg 68%
05:00 +20°C° 0 mm 5 mps 679 mmHg 72%
06:00 +20°C° 0 mm 5 mps 679 mmHg 71%
07:00 +20°C° 0 mm 5 mps 680 mmHg 69%
08:00 +20°C° 0 mm 5 mps 680 mmHg 68%
09:00 +22°C° 0 mm 5 mps 681 mmHg 60%
10:00 +25°C° 0 mm 5 mps 681 mmHg 51%
11:00 +28°C° 0 mm 5 mps 681 mmHg 43%
12:00 +29°C° 0 mm 4 mps 680 mmHg 37%
13:00 +30°C° 0 mm 4 mps 679 mmHg 31%
14:00 +33°C° 0 mm 3 mps 679 mmHg 25%
15:00 +33°C° 0 mm 3 mps 678 mmHg 25%
16:00 +33°C° 0 mm 3 mps 678 mmHg 24%
17:00 +33°C° 0 mm 4 mps 678 mmHg 24%
18:00 +30°C° 0 mm 3 mps 678 mmHg 27%
19:00 +28°C° 0 mm 2 mps 678 mmHg 30%
20:00 +26°C° 0 mm 2 mps 679 mmHg 33%
21:00 +26°C° 0 mm 2 mps 679 mmHg 34%
22:00 +25°C° 0 mm 2 mps 679 mmHg 35%
23:00 +25°C° 0 mm 3 mps 679 mmHg 36%

Mañana, 19 Septiembre, Sábado

Tiempo Temperatura Precipitaciones Viento Presión Humedad
00:00 +24°C° 0 mm 3 mps 679 mmHg 38%
01:00 +24°C° 0 mm 3 mps 678 mmHg 39%
02:00 +22°C° 0 mm 3 mps 678 mmHg 41%
03:00 +21°C° 0 mm 3 mps 678 mmHg 41%
04:00 +20°C° 0 mm 2 mps 677 mmHg 41%
05:00 +20°C° 0 mm 2 mps 677 mmHg 41%
06:00 +23°C° 0 mm 2 mps 678 mmHg 36%
07:00 +25°C° 0 mm 2 mps 679 mmHg 31%
08:00 +27°C° 0 mm 3 mps 679 mmHg 25%
09:00 +30°C° 0 mm 3 mps 679 mmHg 22%
10:00 +33°C° 0 mm 4 mps 680 mmHg 18%
11:00 +36°C° 0 mm 4 mps 680 mmHg 15%
12:00 +37°C° 0 mm 5 mps 679 mmHg 14%
13:00 +37°C° 0 mm 5 mps 678 mmHg 13%
14:00 +39°C° 0 mm 5 mps 677 mmHg 11%
15:00 +37°C° 0 mm 5 mps 677 mmHg 12%
16:00 +37°C° 0 mm 5 mps 677 mmHg 12%
17:00 +36°C° 0 mm 5 mps 677 mmHg 12%
18:00 +34°C° 0 mm 5 mps 677 mmHg 15%
19:00 +30°C° 0 mm 4 mps 677 mmHg 18%
20:00 +28°C° 0 mm 4 mps 677 mmHg 20%
21:00 +27°C° 0 mm 4 mps 677 mmHg 21%
22:00 +26°C° 0 mm 4 mps 677 mmHg 22%
23:00 +26°C° 0 mm 4 mps 678 mmHg 23%

Pasado mañana, 20 Septiembre, Domingo

Tiempo Temperatura Precipitaciones Viento Presión Humedad
00:00 +25°C° 0 mm 4 mps 677 mmHg 24%
01:00 +23°C° 0 mm 4 mps 676 mmHg 25%
02:00 +23°C° 0 mm 4 mps 676 mmHg 26%
03:00 +22°C° 0 mm 4 mps 676 mmHg 27%
04:00 +22°C° 0 mm 3 mps 676 mmHg 28%
05:00 +21°C° 0 mm 3 mps 676 mmHg 29%
06:00 +23°C° 0 mm 4 mps 677 mmHg 27%
07:00 +27°C° 0 mm 4 mps 678 mmHg 25%
08:00 +29°C° 0 mm 4 mps 679 mmHg 23%
09:00 +32°C° 0 mm 4 mps 679 mmHg 20%
10:00 +34°C° 0 mm 4 mps 679 mmHg 16%
11:00 +36°C° 0 mm 4 mps 679 mmHg 12%
12:00 +37°C° 0 mm 4 mps 678 mmHg 11%
13:00 +38°C° 0 mm 4 mps 677 mmHg 10%
14:00 +40°C° 0 mm 4 mps 677 mmHg 9%
15:00 +38°C° 0 mm 4 mps 676 mmHg 9%
16:00 +38°C° 0 mm 4 mps 676 mmHg 9%
17:00 +37°C° 0 mm 5 mps 676 mmHg 8%
18:00 +34°C° 0 mm 5 mps 676 mmHg 10%
19:00 +32°C° 0 mm 4 mps 676 mmHg 12%
20:00 +28°C° 0 mm 4 mps 675 mmHg 14%
21:00 +27°C° 0 mm 4 mps 676 mmHg 15%
22:00 +26°C° 0 mm 4 mps 676 mmHg 16%
23:00 +26°C° 0 mm 4 mps 676 mmHg 16%

21 Septiembre, Lunes

Tiempo Temperatura Precipitaciones Viento Presión Humedad
00:00 +25°C° 0 mm 4 mps 676 mmHg 18%
01:00 +23°C° 0 mm 4 mps 675 mmHg 20%
02:00 +22°C° 0 mm 4 mps 675 mmHg 22%
03:00 +22°C° 0 mm 4 mps 675 mmHg 23%
04:00 +21°C° 0 mm 3 mps 675 mmHg 24%
05:00 +21°C° 0 mm 3 mps 675 mmHg 25%
06:00 +24°C° 0 mm 3 mps 676 mmHg 22%
07:00 +27°C° 0 mm 4 mps 677 mmHg 19%
08:00 +29°C° 0 mm 4 mps 677 mmHg 16%
09:00 +33°C° 0 mm 4 mps 678 mmHg 13%
10:00 +36°C° 0 mm 4 mps 678 mmHg 11%
11:00 +40°C° 0 mm 5 mps 678 mmHg 8%
12:00 +40°C° 0 mm 5 mps 678 mmHg 8%
13:00 +41°C° 0 mm 5 mps 677 mmHg 7%
14:00 +42°C° 0 mm 5 mps 677 mmHg 7%
15:00 +41°C° 0 mm 6 mps 677 mmHg 7%
16:00 +40°C° 0 mm 6 mps 676 mmHg 7%
17:00 +39°C° 0 mm 7 mps 676 mmHg 7%
18:00 +36°C° 0 mm 7 mps 677 mmHg 9%
19:00 +33°C° 0 mm 7 mps 677 mmHg 12%
20:00 +31°C° 0 mm 8 mps 678 mmHg 14%
21:00 +29°C° 0 mm 8 mps 678 mmHg 17%
22:00 +28°C° 0 mm 9 mps 678 mmHg 21%
23:00 +26°C° 0 mm 10 mps 679 mmHg 25%

22 Septiembre, Martes

Tiempo Temperatura Precipitaciones Viento Presión Humedad
00:00 +23°C° 0 mm 10 mps 679 mmHg 42%
01:00 +19°C° 0 mm 10 mps 678 mmHg 60%
02:00 +16°C° 0 mm 10 mps 678 mmHg 78%
03:00 +16°C° 0 mm 9 mps 679 mmHg 77%
04:00 +16°C° 0 mm 9 mps 679 mmHg 76%
05:00 +16°C° 0 mm 9 mps 680 mmHg 75%
06:00 +17°C° 0 mm 9 mps 680 mmHg 73%
07:00 +17°C° 0 mm 9 mps 681 mmHg 71%
08:00 +18°C° 0 mm 9 mps 682 mmHg 69%
09:00 +19°C° 0 mm 9 mps 682 mmHg 63%
10:00 +21°C° 0 mm 9 mps 682 mmHg 57%
11:00 +22°C° 0 mm 9 mps 682 mmHg 51%
12:00 +23°C° 0 mm 9 mps 682 mmHg 46%
13:00 +26°C° 0 mm 9 mps 681 mmHg 42%
14:00 +27°C° 0 mm 9 mps 681 mmHg 37%
15:00 +27°C° 0 mm 9 mps 681 mmHg 38%
16:00 +26°C° 0 mm 9 mps 681 mmHg 40%
17:00 +24°C° 0 mm 8 mps 680 mmHg 41%
18:00 +23°C° 0 mm 8 mps 681 mmHg 46%
19:00 +21°C° 0 mm 7 mps 681 mmHg 52%
20:00 +18°C° 0 mm 7 mps 681 mmHg 58%
21:00 +17°C° 0 mm 7 mps 681 mmHg 62%
22:00 +16°C° 0 mm 7 mps 681 mmHg 67%
23:00 +15°C° 0 mm 7 mps 681 mmHg 71%

23 Septiembre, Miércoles

Tiempo Temperatura Precipitaciones Viento Presión Humedad
00:00 +15°C° 0 mm 7 mps 681 mmHg 73%
01:00 +14°C° 0 mm 7 mps 681 mmHg 75%
02:00 +14°C° 0 mm 6 mps 680 mmHg 77%
03:00 +13°C° 0 mm 6 mps 680 mmHg 80%
04:00 +13°C° 0 mm 6 mps 680 mmHg 83%
05:00 +12°C° 0 mm 5 mps 680 mmHg 86%
06:00 +13°C° 0 mm 6 mps 681 mmHg 82%
07:00 +13°C° 0 mm 6 mps 681 mmHg 79%
08:00 +14°C° 0 mm 6 mps 681 mmHg 75%
09:00 +16°C° 0 mm 6 mps 681 mmHg 65%
10:00 +20°C° 0 mm 5 mps 681 mmHg 55%
11:00 +22°C° 0 mm 5 mps 681 mmHg 45%
12:00 +26°C° 0 mm 5 mps 681 mmHg 38%
13:00 +28°C° 0 mm 4 mps 680 mmHg 31%
14:00 +32°C° 0 mm 4 mps 679 mmHg 24%
15:00 +32°C° 0 mm 4 mps 679 mmHg 22%
16:00 +32°C° 0 mm 4 mps 679 mmHg 21%
17:00 +32°C° 0 mm 5 mps 678 mmHg 20%
18:00 +29°C° 0 mm 4 mps 678 mmHg 25%
19:00 +26°C° 0 mm 4 mps 678 mmHg 29%
20:00 +24°C° 0 mm 3 mps 678 mmHg 33%
21:00 +22°C° 0 mm 3 mps 678 mmHg 36%
22:00 +20°C° 0 mm 3 mps 678 mmHg 39%
23:00 +19°C° 0 mm 3 mps 678 mmHg 42%
Mostrar más